Flag for Mexico Weather past 2 weeks in Merida, Yucatán, Mexico

Now
81 °F

Clear.


Feels Like: 84 °F
Forecast: 78 / 100 °F
Wind: 14 mph from Southeast

Location: Aerop. Internacional Merida - Yuc

Current Time: May 26, 2015 at 2:49:29 AM

Latest Report: May 26, 2015 at 1:45 AM


Visibility: 7 mi

Pressure: 29.95 "Hg

Humidity: 70%

Dew point: 70 °F

Location of MeridaLocation

Historic Weather in Merida — Graph

°F

Merida temperature yesterday

Maximum temperature yesterday: 102 °F (at 2:45 PM)
Minimum temperature yesterday: 77 °F (at 4:51 AM)
Average temperature yesterday: 88 °F

Past Weeks' High & Low Weather Summary

 TemperatureHumidityPressure
High102 °F (May 11, 2:51 PM)89% (May 11, 4:55 AM)30.10 "Hg (May 11, 4:55 AM)
Low75 °F (May 11, 4:55 AM)21% (May 13, 1:50 PM)29.82 "Hg (May 11, 5:45 PM)
Average86 °F61%29.97 "Hg
* Reported May 11 1:54 AM — May 26 1:45 AM, Merida, Weather by CustomWeather, © 2015

Note: Actual official high and low records may vary slightly from our data, if they occured in-between our weather recording intervals... More about our weather records

Advertising

Merida weather history for previous 24 hours

 ConditionsComfort  
Time TempWeatherWind HumidityBarometerVisibility
1:45 AM
Tue, May 26
81 °FClear.14 mph70%29.95 "Hg7 mi
12:47 AM82 °FClear.15 mph66%29.94 "Hg7 mi
11:44 PM
Mon, May 25
84 °FClear.18 mph58%29.97 "Hg7 mi
9:45 PM90 °FClear.17 mph43%29.90 "Hg7 mi
7:46 PM95 °FScattered clouds.13 mph34%29.87 "Hg7 mi
4:45 PM100 °FScattered clouds.20 mph27%29.86 "Hg7 mi
3:45 PM102 °FScattered clouds.23 mph26%29.88 "Hg7 mi
2:45 PM102 °FBroken clouds.24 mph29%29.90 "Hg7 mi
1:53 PM99 °FScattered clouds.12 mph33%29.92 "Hg7 mi
12:42 PM97 °FScattered clouds.20 mph34%29.94 "Hg7 mi
11:45 AM95 °FScattered clouds.14 mph39%29.96 "Hg7 mi
10:42 AM91 °FScattered clouds.16 mph49%29.98 "Hg7 mi
9:42 AM88 °FScattered clouds.18 mph59%29.99 "Hg7 mi
8:51 AM82 °FScattered clouds.16 mph74%29.99 "Hg7 mi
7:49 AM79 °FPartly sunny.9 mph84%29.98 "Hg7 mi
6:55 AM79 °FPassing clouds.9 mph89%29.97 "Hg5 mi
5:51 AM77 °FPassing clouds.8 mph89%29.95 "Hg7 mi
4:51 AM77 °FPassing clouds.9 mph83%29.94 "Hg7 mi
3:53 AM79 °FPassing clouds.12 mph84%29.94 "Hg7 mi
2:54 AM81 °FPassing clouds.8 mph79%29.95 "Hg7 mi
Weather by CustomWeather, © 2015

See weather overviewHow to use our weather pages